owner,sensor,date,latitude,longitude,vertical_datum,sea_water_practical_salinity,qcFlag 
ENP,ioos.station.NOAA.NDBC:TRRF1:1,2019-11-01T00:00:00Z,25.2170,-80.6500,1.5,0.7,11111222 
ENP,ioos.station.NOAA.NDBC:TRRF1:1,2019-11-01T01:00:00Z,25.2170,-80.6500,1.5,0.7,11111222 
ENP,ioos.station.NOAA.NDBC:TRRF1:1,2019-11-01T02:00:00Z,25.2170,-80.6500,1.5,0.7,11111222 
ENP,ioos.station.NOAA.NDBC:TRRF1:1,2019-11-01T04:00:00Z,25.2170,-80.6500,1.5,0.69,11111222 
ENP,ioos.station.NOAA.NDBC:TRRF1:1,2019-11-01T06:00:00Z,25.2170,-80.6500,1.5,0.68,11111222 
ENP,ioos.station.NOAA.NDBC:TRRF1:1,2019-11-01T07:00:00Z,25.2170,-80.6500,1.5,0.67,11111222 
ENP,ioos.station.NOAA.NDBC:TRRF1:1,2019-11-01T08:00:00Z,25.2170,-80.6500,1.5,0.67,11111222 
ENP,ioos.station.NOAA.NDBC:TRRF1:1,2019-11-01T09:00:00Z,25.2170,-80.6500,1.5,0.66,11111222 
ENP,ioos.station.NOAA.NDBC:TRRF1:1,2019-11-01T10:00:00Z,25.2170,-80.6500,1.5,0.66,11111222 
ENP,ioos.station.NOAA.NDBC:TRRF1:1,2019-11-01T11:00:00Z,25.2170,-80.6500,1.5,0.65,11111222 
ENP,ioos.station.NOAA.NDBC:TRRF1:1,2019-11-01T12:00:00Z,25.2170,-80.6500,1.5,0.65,11111222 
ENP,ioos.station.NOAA.NDBC:TRRF1:1,2019-11-01T13:00:00Z,25.2170,-80.6500,1.5,0.64,11111222 
ENP,ioos.station.NOAA.NDBC:TRRF1:1,2019-11-01T15:00:00Z,25.2170,-80.6500,1.5,0.64,11111222 
ENP,ioos.station.NOAA.NDBC:TRRF1:1,2019-11-01T17:00:00Z,25.2170,-80.6500,1.5,0.64,11111222 
ENP,ioos.station.NOAA.NDBC:TRRF1:1,2019-11-01T18:00:00Z,25.2170,-80.6500,1.5,0.64,11111222 
ENP,ioos.station.NOAA.NDBC:TRRF1:1,2019-11-01T19:00:00Z,25.2170,-80.6500,1.5,0.65,11111222 
ENP,ioos.station.NOAA.NDBC:TRRF1:1,2019-11-01T20:00:00Z,25.2170,-80.6500,1.5,0.65,11111222 
ENP,ioos.station.NOAA.NDBC:TRRF1:1,2019-11-01T21:00:00Z,25.2170,-80.6500,1.5,0.65,11111222 
ENP,ioos.station.NOAA.NDBC:TRRF1:1,2019-11-01T23:00:00Z,25.2170,-80.6500,1.5,0.67,11111222 
ENP,ioos.station.NOAA.NDBC:TRRF1:1,2019-11-02T00:00:00Z,25.2170,-80.6500,1.5,0.67,11111222 
ENP,ioos.station.NOAA.NDBC:TRRF1:1,2019-11-02T02:00:00Z,25.2170,-80.6500,1.5,0.67,11111222 
ENP,ioos.station.NOAA.NDBC:TRRF1:1,2019-11-02T04:00:00Z,25.2170,-80.6500,1.5,0.67,11111222 
ENP,ioos.station.NOAA.NDBC:TRRF1:1,2019-11-02T06:00:00Z,25.2170,-80.6500,1.5,0.66,11111222 
ENP,ioos.station.NOAA.NDBC:TRRF1:1,2019-11-02T07:00:00Z,25.2170,-80.6500,1.5,0.65,11111222 
ENP,ioos.station.NOAA.NDBC:TRRF1:1,2019-11-02T08:00:00Z,25.2170,-80.6500,1.5,0.65,11111222 
ENP,ioos.station.NOAA.NDBC:TRRF1:1,2019-11-02T09:00:00Z,25.2170,-80.6500,1.5,0.64,11111222 
ENP,ioos.station.NOAA.NDBC:TRRF1:1,2019-11-02T10:00:00Z,25.2170,-80.6500,1.5,0.64,11111222 
ENP,ioos.station.NOAA.NDBC:TRRF1:1,2019-11-02T11:00:00Z,25.2170,-80.6500,1.5,0.63,11111222 
ENP,ioos.station.NOAA.NDBC:TRRF1:1,2019-11-02T13:00:00Z,25.2170,-80.6500,1.5,0.62,11111222 
ENP,ioos.station.NOAA.NDBC:TRRF1:1,2019-11-02T14:00:00Z,25.2170,-80.6500,1.5,0.61,11111222 
ENP,ioos.station.NOAA.NDBC:TRRF1:1,2019-11-02T15:00:00Z,25.2170,-80.6500,1.5,0.61,11111222 
ENP,ioos.station.NOAA.NDBC:TRRF1:1,2019-11-02T16:00:00Z,25.2170,-80.6500,1.5,0.61,11111222 
ENP,ioos.station.NOAA.NDBC:TRRF1:1,2019-11-02T18:00:00Z,25.2170,-80.6500,1.5,0.61,11111222 
ENP,ioos.station.NOAA.NDBC:TRRF1:1,2019-11-02T19:00:00Z,25.2170,-80.6500,1.5,0.61,11111222 
ENP,ioos.station.NOAA.NDBC:TRRF1:1,2019-11-02T20:00:00Z,25.2170,-80.6500,1.5,0.61,11111222 
ENP,ioos.station.NOAA.NDBC:TRRF1:1,2019-11-02T21:00:00Z,25.2170,-80.6500,1.5,0.62,11111222 
ENP,ioos.station.NOAA.NDBC:TRRF1:1,2019-11-02T22:00:00Z,25.2170,-80.6500,1.5,0.62,11111222 
ENP,ioos.station.NOAA.NDBC:TRRF1:1,2019-11-02T23:00:00Z,25.2170,-80.6500,1.5,0.62,11111222 
ENP,ioos.station.NOAA.NDBC:TRRF1:1,2019-11-03T00:00:00Z,25.2170,-80.6500,1.5,0.62,11111222 
ENP,ioos.station.NOAA.NDBC:TRRF1:1,2019-11-03T01:00:00Z,25.2170,-80.6500,1.5,0.62,11111222 
ENP,ioos.station.NOAA.NDBC:TRRF1:1,2019-11-03T03:00:00Z,25.2170,-80.6500,1.5,0.62,11111222 
ENP,ioos.station.NOAA.NDBC:TRRF1:1,2019-11-03T05:00:00Z,25.2170,-80.6500,1.5,0.62,11111222 
ENP,ioos.station.NOAA.NDBC:TRRF1:1,2019-11-03T07:00:00Z,25.2170,-80.6500,1.5,0.61,11111222 
ENP,ioos.station.NOAA.NDBC:TRRF1:1,2019-11-03T08:00:00Z,25.2170,-80.6500,1.5,0.6,11111222 
ENP,ioos.station.NOAA.NDBC:TRRF1:1,2019-11-03T09:00:00Z,25.2170,-80.6500,1.5,0.6,11111222 
ENP,ioos.station.NOAA.NDBC:TRRF1:1,2019-11-03T10:00:00Z,25.2170,-80.6500,1.5,0.6,11111222 
ENP,ioos.station.NOAA.NDBC:TRRF1:1,2019-11-03T11:00:00Z,25.2170,-80.6500,1.5,0.59,11111222 
ENP,ioos.station.NOAA.NDBC:TRRF1:1,2019-11-03T12:00:00Z,25.2170,-80.6500,1.5,0.59,11111222 
ENP,ioos.station.NOAA.NDBC:TRRF1:1,2019-11-03T13:00:00Z,25.2170,-80.6500,1.5,0.58,11111222 
ENP,ioos.station.NOAA.NDBC:TRRF1:1,2019-11-03T14:00:00Z,25.2170,-80.6500,1.5,0.57,11111222 
ENP,ioos.station.NOAA.NDBC:TRRF1:1,2019-11-03T15:00:00Z,25.2170,-80.6500,1.5,0.57,11111222 
ENP,ioos.station.NOAA.NDBC:TRRF1:1,2019-11-03T16:00:00Z,25.2170,-80.6500,1.5,0.57,11111222 
ENP,ioos.station.NOAA.NDBC:TRRF1:1,2019-11-03T17:00:00Z,25.2170,-80.6500,1.5,0.57,11111222 
ENP,ioos.station.NOAA.NDBC:TRRF1:1,2019-11-03T19:00:00Z,25.2170,-80.6500,1.5,0.56,11111222 
ENP,ioos.station.NOAA.NDBC:TRRF1:1,2019-11-03T20:00:00Z,25.2170,-80.6500,1.5,0.56,11111222 
ENP,ioos.station.NOAA.NDBC:TRRF1:1,2019-11-03T21:00:00Z,25.2170,-80.6500,1.5,0.56,11111222 
ENP,ioos.station.NOAA.NDBC:TRRF1:1,2019-11-03T22:00:00Z,25.2170,-80.6500,1.5,0.56,11111222 
ENP,ioos.station.NOAA.NDBC:TRRF1:1,2019-11-03T23:00:00Z,25.2170,-80.6500,1.5,0.56,11111222 
ENP,ioos.station.NOAA.NDBC:TRRF1:1,2019-11-04T00:00:00Z,25.2170,-80.6500,1.5,0.56,11111222 
ENP,ioos.station.NOAA.NDBC:TRRF1:1,2019-11-04T02:00:00Z,25.2170,-80.6500,1.5,0.57,11111222 
ENP,ioos.station.NOAA.NDBC:TRRF1:1,2019-11-04T03:00:00Z,25.2170,-80.6500,1.5,0.57,11111222 
ENP,ioos.station.NOAA.NDBC:TRRF1:1,2019-11-04T05:00:00Z,25.2170,-80.6500,1.5,0.57,11111222 
ENP,ioos.station.NOAA.NDBC:TRRF1:1,2019-11-04T16:00:00Z,25.2170,-80.6500,1.5,0.55,11111222 
ENP,ioos.station.NOAA.NDBC:TRRF1:1,2019-11-04T17:00:00Z,25.2170,-80.6500,1.5,0.55,11111222 
ENP,ioos.station.NOAA.NDBC:TRRF1:1,2019-11-04T18:00:00Z,25.2170,-80.6500,1.5,0.54,11111222 
ENP,ioos.station.NOAA.NDBC:TRRF1:1,2019-11-04T19:00:00Z,25.2170,-80.6500,1.5,0.54,11111222 
ENP,ioos.station.NOAA.NDBC:TRRF1:1,2019-11-04T20:00:00Z,25.2170,-80.6500,1.5,0.55,11111222 
ENP,ioos.station.NOAA.NDBC:TRRF1:1,2019-11-04T21:00:00Z,25.2170,-80.6500,1.5,0.55,11111222 
ENP,ioos.station.NOAA.NDBC:TRRF1:1,2019-11-04T22:00:00Z,25.2170,-80.6500,1.5,0.55,11111222 
ENP,ioos.station.NOAA.NDBC:TRRF1:1,2019-11-04T23:00:00Z,25.2170,-80.6500,1.5,0.56,11111222 
ENP,ioos.station.NOAA.NDBC:TRRF1:1,2019-11-05T00:00:00Z,25.2170,-80.6500,1.5,0.56,11111222 
ENP,ioos.station.NOAA.NDBC:TRRF1:1,2019-11-05T01:00:00Z,25.2170,-80.6500,1.5,0.56,11111222 
ENP,ioos.station.NOAA.NDBC:TRRF1:1,2019-11-05T03:00:00Z,25.2170,-80.6500,1.5,0.55,11111222 
ENP,ioos.station.NOAA.NDBC:TRRF1:1,2019-11-05T05:00:00Z,25.2170,-80.6500,1.5,0.55,11111222 
ENP,ioos.station.NOAA.NDBC:TRRF1:1,2019-11-05T07:00:00Z,25.2170,-80.6500,1.5,0.54,11111222 
ENP,ioos.station.NOAA.NDBC:TRRF1:1,2019-11-05T08:00:00Z,25.2170,-80.6500,1.5,0.54,11111222 
ENP,ioos.station.NOAA.NDBC:TRRF1:1,2019-11-05T09:00:00Z,25.2170,-80.6500,1.5,0.54,11111222 
ENP,ioos.station.NOAA.NDBC:TRRF1:1,2019-11-05T10:00:00Z,25.2170,-80.6500,1.5,0.54,11111222 
ENP,ioos.station.NOAA.NDBC:TRRF1:1,2019-11-05T11:00:00Z,25.2170,-80.6500,1.5,0.54,11111222 
ENP,ioos.station.NOAA.NDBC:TRRF1:1,2019-11-05T12:00:00Z,25.2170,-80.6500,1.5,0.54,11111222 
ENP,ioos.station.NOAA.NDBC:TRRF1:1,2019-11-05T13:00:00Z,25.2170,-80.6500,1.5,0.54,11111222 
ENP,ioos.station.NOAA.NDBC:TRRF1:1,2019-11-05T14:00:00Z,25.2170,-80.6500,1.5,0.54,11111222 
ENP,ioos.station.NOAA.NDBC:TRRF1:1,2019-11-05T15:00:00Z,25.2170,-80.6500,1.5,0.54,11111222 
ENP,ioos.station.NOAA.NDBC:TRRF1:1,2019-11-05T16:00:00Z,25.2170,-80.6500,1.5,0.54,11111222 
ENP,ioos.station.NOAA.NDBC:TRRF1:1,2019-11-05T17:00:00Z,25.2170,-80.6500,1.5,0.54,11111222 
ENP,ioos.station.NOAA.NDBC:TRRF1:1,2019-11-05T18:00:00Z,25.2170,-80.6500,1.5,0.54,11111222 
ENP,ioos.station.NOAA.NDBC:TRRF1:1,2019-11-05T19:00:00Z,25.2170,-80.6500,1.5,0.54,11111222 
ENP,ioos.station.NOAA.NDBC:TRRF1:1,2019-11-05T20:00:00Z,25.2170,-80.6500,1.5,0.54,11111222 
ENP,ioos.station.NOAA.NDBC:TRRF1:1,2019-11-05T21:00:00Z,25.2170,-80.6500,1.5,0.54,11111222 
ENP,ioos.station.NOAA.NDBC:TRRF1:1,2019-11-05T22:00:00Z,25.2170,-80.6500,1.5,0.54,11111222 
ENP,ioos.station.NOAA.NDBC:TRRF1:1,2019-11-05T23:00:00Z,25.2170,-80.6500,1.5,0.54,11111222 
ENP,ioos.station.NOAA.NDBC:TRRF1:1,2019-11-06T00:00:00Z,25.2170,-80.6500,1.5,0.54,11111222 
ENP,ioos.station.NOAA.NDBC:TRRF1:1,2019-11-06T01:00:00Z,25.2170,-80.6500,1.5,0.54,11111222 
ENP,ioos.station.NOAA.NDBC:TRRF1:1,2019-11-06T02:00:00Z,25.2170,-80.6500,1.5,0.54,11111222 
ENP,ioos.station.NOAA.NDBC:TRRF1:1,2019-11-06T03:00:00Z,25.2170,-80.6500,1.5,0.54,11111222 
ENP,ioos.station.NOAA.NDBC:TRRF1:1,2019-11-06T05:00:00Z,25.2170,-80.6500,1.5,0.54,11111222 
ENP,ioos.station.NOAA.NDBC:TRRF1:1,2019-11-06T07:00:00Z,25.2170,-80.6500,1.5,0.54,11111222 
ENP,ioos.station.NOAA.NDBC:TRRF1:1,2019-11-06T08:00:00Z,25.2170,-80.6500,1.5,0.54,11111222 
ENP,ioos.station.NOAA.NDBC:TRRF1:1,2019-11-06T09:00:00Z,25.2170,-80.6500,1.5,0.54,11111222 
ENP,ioos.station.NOAA.NDBC:TRRF1:1,2019-11-06T10:00:00Z,25.2170,-80.6500,1.5,0.54,11111222 
ENP,ioos.station.NOAA.NDBC:TRRF1:1,2019-11-06T11:00:00Z,25.2170,-80.6500,1.5,0.54,11111222 
ENP,ioos.station.NOAA.NDBC:TRRF1:1,2019-11-06T12:00:00Z,25.2170,-80.6500,1.5,0.53,11111222 
ENP,ioos.station.NOAA.NDBC:TRRF1:1,2019-11-06T13:00:00Z,25.2170,-80.6500,1.5,0.53,11111222 
ENP,ioos.station.NOAA.NDBC:TRRF1:1,2019-11-06T14:00:00Z,25.2170,-80.6500,1.5,0.53,11111222 
ENP,ioos.station.NOAA.NDBC:TRRF1:1,2019-11-06T15:00:00Z,25.2170,-80.6500,1.5,0.53,11111222 
ENP,ioos.station.NOAA.NDBC:TRRF1:1,2019-11-06T16:00:00Z,25.2170,-80.6500,1.5,0.53,11111222 
ENP,ioos.station.NOAA.NDBC:TRRF1:1,2019-11-06T17:00:00Z,25.2170,-80.6500,1.5,0.53,11111222 
ENP,ioos.station.NOAA.NDBC:TRRF1:1,2019-11-06T19:00:00Z,25.2170,-80.6500,1.5,0.53,11111222 
ENP,ioos.station.NOAA.NDBC:TRRF1:1,2019-11-06T20:00:00Z,25.2170,-80.6500,1.5,0.53,11111222 
ENP,ioos.station.NOAA.NDBC:TRRF1:1,2019-11-06T21:00:00Z,25.2170,-80.6500,1.5,0.53,11111222 
ENP,ioos.station.NOAA.NDBC:TRRF1:1,2019-11-06T22:00:00Z,25.2170,-80.6500,1.5,0.54,11111222 
ENP,ioos.station.NOAA.NDBC:TRRF1:1,2019-11-06T23:00:00Z,25.2170,-80.6500,1.5,0.54,11111222 
ENP,ioos.station.NOAA.NDBC:TRRF1:1,2019-11-07T00:00:00Z,25.2170,-80.6500,1.5,0.55,11111222 
ENP,ioos.station.NOAA.NDBC:TRRF1:1,2019-11-07T01:00:00Z,25.2170,-80.6500,1.5,0.55,11111222 
ENP,ioos.station.NOAA.NDBC:TRRF1:1,2019-11-07T02:00:00Z,25.2170,-80.6500,1.5,0.55,11111222 
ENP,ioos.station.NOAA.NDBC:TRRF1:1,2019-11-07T03:00:00Z,25.2170,-80.6500,1.5,0.55,11111222 
ENP,ioos.station.NOAA.NDBC:TRRF1:1,2019-11-07T05:00:00Z,25.2170,-80.6500,1.5,0.55,11111222 
ENP,ioos.station.NOAA.NDBC:TRRF1:1,2019-11-07T07:00:00Z,25.2170,-80.6500,1.5,0.55,11111222 
ENP,ioos.station.NOAA.NDBC:TRRF1:1,2019-11-07T08:00:00Z,25.2170,-80.6500,1.5,0.55,11111222 
ENP,ioos.station.NOAA.NDBC:TRRF1:1,2019-11-07T09:00:00Z,25.2170,-80.6500,1.5,0.55,11111222 
ENP,ioos.station.NOAA.NDBC:TRRF1:1,2019-11-07T10:00:00Z,25.2170,-80.6500,1.5,0.55,11111222 
ENP,ioos.station.NOAA.NDBC:TRRF1:1,2019-11-07T11:00:00Z,25.2170,-80.6500,1.5,0.55,11111222 
ENP,ioos.station.NOAA.NDBC:TRRF1:1,2019-11-07T12:00:00Z,25.2170,-80.6500,1.5,0.55,11111222 
ENP,ioos.station.NOAA.NDBC:TRRF1:1,2019-11-07T13:00:00Z,25.2170,-80.6500,1.5,0.55,11111222 
ENP,ioos.station.NOAA.NDBC:TRRF1:1,2019-11-07T14:00:00Z,25.2170,-80.6500,1.5,0.55,11111222 
ENP,ioos.station.NOAA.NDBC:TRRF1:1,2019-11-07T15:00:00Z,25.2170,-80.6500,1.5,0.54,11111222 
ENP,ioos.station.NOAA.NDBC:TRRF1:1,2019-11-07T16:00:00Z,25.2170,-80.6500,1.5,0.54,11111222 
ENP,ioos.station.NOAA.NDBC:TRRF1:1,2019-11-07T17:00:00Z,25.2170,-80.6500,1.5,0.54,11111222 
ENP,ioos.station.NOAA.NDBC:TRRF1:1,2019-11-07T19:00:00Z,25.2170,-80.6500,1.5,0.53,11111222 
ENP,ioos.station.NOAA.NDBC:TRRF1:1,2019-11-07T20:00:00Z,25.2170,-80.6500,1.5,0.53,11111222 
ENP,ioos.station.NOAA.NDBC:TRRF1:1,2019-11-07T21:00:00Z,25.2170,-80.6500,1.5,0.53,11111222 
ENP,ioos.station.NOAA.NDBC:TRRF1:1,2019-11-07T22:00:00Z,25.2170,-80.6500,1.5,0.53,11111222 
ENP,ioos.station.NOAA.NDBC:TRRF1:1,2019-11-07T23:00:00Z,25.2170,-80.6500,1.5,0.53,11111222 
ENP,ioos.station.NOAA.NDBC:TRRF1:1,2019-11-08T00:00:00Z,25.2170,-80.6500,1.5,0.53,11111222 
ENP,ioos.station.NOAA.NDBC:TRRF1:1,2019-11-08T01:00:00Z,25.2170,-80.6500,1.5,0.53,11111222 
ENP,ioos.station.NOAA.NDBC:TRRF1:1,2019-11-08T03:00:00Z,25.2170,-80.6500,1.5,0.54,11111222 
ENP,ioos.station.NOAA.NDBC:TRRF1:1,2019-11-08T05:00:00Z,25.2170,-80.6500,1.5,0.54,11111222 
ENP,ioos.station.NOAA.NDBC:TRRF1:1,2019-11-08T07:00:00Z,25.2170,-80.6500,1.5,0.53,11111222 
ENP,ioos.station.NOAA.NDBC:TRRF1:1,2019-11-08T08:00:00Z,25.2170,-80.6500,1.5,0.53,11111222 
ENP,ioos.station.NOAA.NDBC:TRRF1:1,2019-11-08T09:00:00Z,25.2170,-80.6500,1.5,0.53,11111222 
ENP,ioos.station.NOAA.NDBC:TRRF1:1,2019-11-08T10:00:00Z,25.2170,-80.6500,1.5,0.53,11111222 
ENP,ioos.station.NOAA.NDBC:TRRF1:1,2019-11-08T11:00:00Z,25.2170,-80.6500,1.5,0.53,11111222 
ENP,ioos.station.NOAA.NDBC:TRRF1:1,2019-11-08T12:00:00Z,25.2170,-80.6500,1.5,0.53,11111222 
ENP,ioos.station.NOAA.NDBC:TRRF1:1,2019-11-08T14:00:00Z,25.2170,-80.6500,1.5,0.53,11111222 
ENP,ioos.station.NOAA.NDBC:TRRF1:1,2019-11-08T15:00:00Z,25.2170,-80.6500,1.5,0.52,11111222 
ENP,ioos.station.NOAA.NDBC:TRRF1:1,2019-11-08T17:00:00Z,25.2170,-80.6500,1.5,0.52,11111222 
ENP,ioos.station.NOAA.NDBC:TRRF1:1,2019-11-08T19:00:00Z,25.2170,-80.6500,1.5,0.52,11111222 
ENP,ioos.station.NOAA.NDBC:TRRF1:1,2019-11-08T20:00:00Z,25.2170,-80.6500,1.5,0.52,11111222 
ENP,ioos.station.NOAA.NDBC:TRRF1:1,2019-11-08T21:00:00Z,25.2170,-80.6500,1.5,0.52,11111222 
ENP,ioos.station.NOAA.NDBC:TRRF1:1,2019-11-08T22:00:00Z,25.2170,-80.6500,1.5,0.52,11111222 
ENP,ioos.station.NOAA.NDBC:TRRF1:1,2019-11-08T23:00:00Z,25.2170,-80.6500,1.5,0.53,11111222 
ENP,ioos.station.NOAA.NDBC:TRRF1:1,2019-11-09T00:00:00Z,25.2170,-80.6500,1.5,0.54,11111222 
ENP,ioos.station.NOAA.NDBC:TRRF1:1,2019-11-09T01:00:00Z,25.2170,-80.6500,1.5,0.54,11111222 
ENP,ioos.station.NOAA.NDBC:TRRF1:1,2019-11-09T02:00:00Z,25.2170,-80.6500,1.5,0.54,11111222 
ENP,ioos.station.NOAA.NDBC:TRRF1:1,2019-11-09T03:00:00Z,25.2170,-80.6500,1.5,0.54,11111222 
ENP,ioos.station.NOAA.NDBC:TRRF1:1,2019-11-09T05:00:00Z,25.2170,-80.6500,1.5,0.54,11111222 
ENP,ioos.station.NOAA.NDBC:TRRF1:1,2019-11-09T07:00:00Z,25.2170,-80.6500,1.5,0.54,11111222 
ENP,ioos.station.NOAA.NDBC:TRRF1:1,2019-11-09T08:00:00Z,25.2170,-80.6500,1.5,0.54,11111222 
ENP,ioos.station.NOAA.NDBC:TRRF1:1,2019-11-09T09:00:00Z,25.2170,-80.6500,1.5,0.54,11111222 
ENP,ioos.station.NOAA.NDBC:TRRF1:1,2019-11-09T10:00:00Z,25.2170,-80.6500,1.5,0.54,11111222 
ENP,ioos.station.NOAA.NDBC:TRRF1:1,2019-11-09T11:00:00Z,25.2170,-80.6500,1.5,0.54,11111222 
ENP,ioos.station.NOAA.NDBC:TRRF1:1,2019-11-09T12:00:00Z,25.2170,-80.6500,1.5,0.54,11111222 
ENP,ioos.station.NOAA.NDBC:TRRF1:1,2019-11-09T13:00:00Z,25.2170,-80.6500,1.5,0.54,11111222 
ENP,ioos.station.NOAA.NDBC:TRRF1:1,2019-11-09T14:00:00Z,25.2170,-80.6500,1.5,0.54,11111222 
ENP,ioos.station.NOAA.NDBC:TRRF1:1,2019-11-09T15:00:00Z,25.2170,-80.6500,1.5,0.53,11111222 
ENP,ioos.station.NOAA.NDBC:TRRF1:1,2019-11-09T16:00:00Z,25.2170,-80.6500,1.5,0.53,11111222 
ENP,ioos.station.NOAA.NDBC:TRRF1:1,2019-11-09T17:00:00Z,25.2170,-80.6500,1.5,0.53,11111222 
ENP,ioos.station.NOAA.NDBC:TRRF1:1,2019-11-09T19:00:00Z,25.2170,-80.6500,1.5,0.53,11111222 
ENP,ioos.station.NOAA.NDBC:TRRF1:1,2019-11-09T20:00:00Z,25.2170,-80.6500,1.5,0.53,11111222 
ENP,ioos.station.NOAA.NDBC:TRRF1:1,2019-11-09T21:00:00Z,25.2170,-80.6500,1.5,0.53,11111222 
ENP,ioos.station.NOAA.NDBC:TRRF1:1,2019-11-09T22:00:00Z,25.2170,-80.6500,1.5,0.53,11111222 
ENP,ioos.station.NOAA.NDBC:TRRF1:1,2019-11-09T23:00:00Z,25.2170,-80.6500,1.5,0.53,11111222 
ENP,ioos.station.NOAA.NDBC:TRRF1:1,2019-11-10T00:00:00Z,25.2170,-80.6500,1.5,0.53,11111222 
ENP,ioos.station.NOAA.NDBC:TRRF1:1,2019-11-10T01:00:00Z,25.2170,-80.6500,1.5,0.54,11111222 
ENP,ioos.station.NOAA.NDBC:TRRF1:1,2019-11-10T02:00:00Z,25.2170,-80.6500,1.5,0.54,11111222 
ENP,ioos.station.NOAA.NDBC:TRRF1:1,2019-11-10T03:00:00Z,25.2170,-80.6500,1.5,0.54,11111222 
ENP,ioos.station.NOAA.NDBC:TRRF1:1,2019-11-10T05:00:00Z,25.2170,-80.6500,1.5,0.56,11111222 
ENP,ioos.station.NOAA.NDBC:TRRF1:1,2019-11-10T07:00:00Z,25.2170,-80.6500,1.5,0.56,11111222 
ENP,ioos.station.NOAA.NDBC:TRRF1:1,2019-11-10T08:00:00Z,25.2170,-80.6500,1.5,0.56,11111222 
ENP,ioos.station.NOAA.NDBC:TRRF1:1,2019-11-10T09:00:00Z,25.2170,-80.6500,1.5,0.56,11111222 
ENP,ioos.station.NOAA.NDBC:TRRF1:1,2019-11-10T10:00:00Z,25.2170,-80.6500,1.5,0.56,11111222 
ENP,ioos.station.NOAA.NDBC:TRRF1:1,2019-11-10T11:00:00Z,25.2170,-80.6500,1.5,0.56,11111222 
ENP,ioos.station.NOAA.NDBC:TRRF1:1,2019-11-10T12:00:00Z,25.2170,-80.6500,1.5,0.56,11111222 
ENP,ioos.station.NOAA.NDBC:TRRF1:1,2019-11-10T13:00:00Z,25.2170,-80.6500,1.5,0.56,11111222 
ENP,ioos.station.NOAA.NDBC:TRRF1:1,2019-11-10T14:00:00Z,25.2170,-80.6500,1.5,0.56,11111222 
ENP,ioos.station.NOAA.NDBC:TRRF1:1,2019-11-10T15:00:00Z,25.2170,-80.6500,1.5,0.56,11111222 
ENP,ioos.station.NOAA.NDBC:TRRF1:1,2019-11-10T16:00:00Z,25.2170,-80.6500,1.5,0.56,11111222 
ENP,ioos.station.NOAA.NDBC:TRRF1:1,2019-11-10T17:00:00Z,25.2170,-80.6500,1.5,0.55,11111222 
ENP,ioos.station.NOAA.NDBC:TRRF1:1,2019-11-10T19:00:00Z,25.2170,-80.6500,1.5,0.55,11111222 
ENP,ioos.station.NOAA.NDBC:TRRF1:1,2019-11-10T20:00:00Z,25.2170,-80.6500,1.5,0.55,11111222 
ENP,ioos.station.NOAA.NDBC:TRRF1:1,2019-11-10T21:00:00Z,25.2170,-80.6500,1.5,0.55,11111222 
ENP,ioos.station.NOAA.NDBC:TRRF1:1,2019-11-10T22:00:00Z,25.2170,-80.6500,1.5,0.55,11111222 
ENP,ioos.station.NOAA.NDBC:TRRF1:1,2019-11-11T01:00:00Z,25.2170,-80.6500,1.5,0.55,11111222 
ENP,ioos.station.NOAA.NDBC:TRRF1:1,2019-11-11T13:00:00Z,25.2170,-80.6500,1.5,0.54,11111222 
ENP,ioos.station.NOAA.NDBC:TRRF1:1,2019-11-11T17:00:00Z,25.2170,-80.6500,1.5,0.53,11111222 
ENP,ioos.station.NOAA.NDBC:TRRF1:1,2019-11-11T19:00:00Z,25.2170,-80.6500,1.5,0.53,11111222 
ENP,ioos.station.NOAA.NDBC:TRRF1:1,2019-11-11T20:00:00Z,25.2170,-80.6500,1.5,0.54,11111222 
ENP,ioos.station.NOAA.NDBC:TRRF1:1,2019-11-11T21:00:00Z,25.2170,-80.6500,1.5,0.55,11111222 
ENP,ioos.station.NOAA.NDBC:TRRF1:1,2019-11-11T22:00:00Z,25.2170,-80.6500,1.5,0.55,11111222 
ENP,ioos.station.NOAA.NDBC:TRRF1:1,2019-11-11T23:00:00Z,25.2170,-80.6500,1.5,0.56,11111222 
ENP,ioos.station.NOAA.NDBC:TRRF1:1,2019-11-12T00:00:00Z,25.2170,-80.6500,1.5,0.56,11111222 
ENP,ioos.station.NOAA.NDBC:TRRF1:1,2019-11-12T01:00:00Z,25.2170,-80.6500,1.5,0.56,11111222 
ENP,ioos.station.NOAA.NDBC:TRRF1:1,2019-11-12T02:00:00Z,25.2170,-80.6500,1.5,0.57,11111222 
ENP,ioos.station.NOAA.NDBC:TRRF1:1,2019-11-12T03:00:00Z,25.2170,-80.6500,1.5,0.58,11111222 
ENP,ioos.station.NOAA.NDBC:TRRF1:1,2019-11-12T05:00:00Z,25.2170,-80.6500,1.5,0.58,11111222 
ENP,ioos.station.NOAA.NDBC:TRRF1:1,2019-11-12T07:00:00Z,25.2170,-80.6500,1.5,0.6,11111222 
ENP,ioos.station.NOAA.NDBC:TRRF1:1,2019-11-12T08:00:00Z,25.2170,-80.6500,1.5,0.62,11111222 
ENP,ioos.station.NOAA.NDBC:TRRF1:1,2019-11-12T09:00:00Z,25.2170,-80.6500,1.5,0.63,11111222 
ENP,ioos.station.NOAA.NDBC:TRRF1:1,2019-11-12T10:00:00Z,25.2170,-80.6500,1.5,0.64,11111222 
ENP,ioos.station.NOAA.NDBC:TRRF1:1,2019-11-12T11:00:00Z,25.2170,-80.6500,1.5,0.63,11111222 
ENP,ioos.station.NOAA.NDBC:TRRF1:1,2019-11-12T12:00:00Z,25.2170,-80.6500,1.5,0.64,11111222 
ENP,ioos.station.NOAA.NDBC:TRRF1:1,2019-11-12T14:00:00Z,25.2170,-80.6500,1.5,0.64,11111222 
ENP,ioos.station.NOAA.NDBC:TRRF1:1,2019-11-12T15:00:00Z,25.2170,-80.6500,1.5,0.64,11111222 
ENP,ioos.station.NOAA.NDBC:TRRF1:1,2019-11-12T16:00:00Z,25.2170,-80.6500,1.5,0.64,11111222 
ENP,ioos.station.NOAA.NDBC:TRRF1:1,2019-11-12T17:00:00Z,25.2170,-80.6500,1.5,0.81,11111222 
ENP,ioos.station.NOAA.NDBC:TRRF1:1,2019-11-12T19:00:00Z,25.2170,-80.6500,1.5,1.21,11111222 
ENP,ioos.station.NOAA.NDBC:TRRF1:1,2019-11-12T20:00:00Z,25.2170,-80.6500,1.5,1.88,11111222 
ENP,ioos.station.NOAA.NDBC:TRRF1:1,2019-11-12T21:00:00Z,25.2170,-80.6500,1.5,2.89,11111222 
ENP,ioos.station.NOAA.NDBC:TRRF1:1,2019-11-12T22:00:00Z,25.2170,-80.6500,1.5,4.08,11111222 
ENP,ioos.station.NOAA.NDBC:TRRF1:1,2019-11-12T23:00:00Z,25.2170,-80.6500,1.5,6.13,11111222 
ENP,ioos.station.NOAA.NDBC:TRRF1:1,2019-11-13T00:00:00Z,25.2170,-80.6500,1.5,6.96,11111222 
ENP,ioos.station.NOAA.NDBC:TRRF1:1,2019-11-13T01:00:00Z,25.2170,-80.6500,1.5,8.0,11111222 
ENP,ioos.station.NOAA.NDBC:TRRF1:1,2019-11-13T02:00:00Z,25.2170,-80.6500,1.5,8.6,11111222 
ENP,ioos.station.NOAA.NDBC:TRRF1:1,2019-11-13T03:00:00Z,25.2170,-80.6500,1.5,8.87,11111222 
ENP,ioos.station.NOAA.NDBC:TRRF1:1,2019-11-13T05:00:00Z,25.2170,-80.6500,1.5,9.28,11111222 
ENP,ioos.station.NOAA.NDBC:TRRF1:1,2019-11-13T07:00:00Z,25.2170,-80.6500,1.5,9.61,11111222 
ENP,ioos.station.NOAA.NDBC:TRRF1:1,2019-11-13T08:00:00Z,25.2170,-80.6500,1.5,9.77,11111222 
ENP,ioos.station.NOAA.NDBC:TRRF1:1,2019-11-13T09:00:00Z,25.2170,-80.6500,1.5,10.01,11111222 
ENP,ioos.station.NOAA.NDBC:TRRF1:1,2019-11-13T10:00:00Z,25.2170,-80.6500,1.5,10.04,11111222 
ENP,ioos.station.NOAA.NDBC:TRRF1:1,2019-11-13T11:00:00Z,25.2170,-80.6500,1.5,10.04,11111222 
ENP,ioos.station.NOAA.NDBC:TRRF1:1,2019-11-13T12:00:00Z,25.2170,-80.6500,1.5,9.96,11111222 
ENP,ioos.station.NOAA.NDBC:TRRF1:1,2019-11-13T13:00:00Z,25.2170,-80.6500,1.5,9.8,11111222 
ENP,ioos.station.NOAA.NDBC:TRRF1:1,2019-11-13T14:00:00Z,25.2170,-80.6500,1.5,9.73,11111222 
ENP,ioos.station.NOAA.NDBC:TRRF1:1,2019-11-13T15:00:00Z,25.2170,-80.6500,1.5,9.69,11111222 
ENP,ioos.station.NOAA.NDBC:TRRF1:1,2019-11-13T17:00:00Z,25.2170,-80.6500,1.5,9.69,11111222 
ENP,ioos.station.NOAA.NDBC:TRRF1:1,2019-11-13T19:00:00Z,25.2170,-80.6500,1.5,10.44,11111222 
ENP,ioos.station.NOAA.NDBC:TRRF1:1,2019-11-13T20:00:00Z,25.2170,-80.6500,1.5,10.88,11111222 
ENP,ioos.station.NOAA.NDBC:TRRF1:1,2019-11-13T21:00:00Z,25.2170,-80.6500,1.5,11.25,11111222 
ENP,ioos.station.NOAA.NDBC:TRRF1:1,2019-11-13T22:00:00Z,25.2170,-80.6500,1.5,11.64,11111222 
ENP,ioos.station.NOAA.NDBC:TRRF1:1,2019-11-13T23:00:00Z,25.2170,-80.6500,1.5,12.0,11111222 
ENP,ioos.station.NOAA.NDBC:TRRF1:1,2019-11-14T00:00:00Z,25.2170,-80.6500,1.5,12.3,11111222 
ENP,ioos.station.NOAA.NDBC:TRRF1:1,2019-11-14T01:00:00Z,25.2170,-80.6500,1.5,12.64,11111222 
ENP,ioos.station.NOAA.NDBC:TRRF1:1,2019-11-14T03:00:00Z,25.2170,-80.6500,1.5,13.24,11111222 
ENP,ioos.station.NOAA.NDBC:TRRF1:1,2019-11-14T05:00:00Z,25.2170,-80.6500,1.5,13.9,11111222 
ENP,ioos.station.NOAA.NDBC:TRRF1:1,2019-11-14T07:00:00Z,25.2170,-80.6500,1.5,14.46,11111222 
ENP,ioos.station.NOAA.NDBC:TRRF1:1,2019-11-14T08:00:00Z,25.2170,-80.6500,1.5,14.8,11111222 
ENP,ioos.station.NOAA.NDBC:TRRF1:1,2019-11-14T09:00:00Z,25.2170,-80.6500,1.5,15.04,11111222 
ENP,ioos.station.NOAA.NDBC:TRRF1:1,2019-11-14T10:00:00Z,25.2170,-80.6500,1.5,15.24,11111222 
ENP,ioos.station.NOAA.NDBC:TRRF1:1,2019-11-14T11:00:00Z,25.2170,-80.6500,1.5,15.48,11111222 
ENP,ioos.station.NOAA.NDBC:TRRF1:1,2019-11-14T12:00:00Z,25.2170,-80.6500,1.5,15.67,11111222 
ENP,ioos.station.NOAA.NDBC:TRRF1:1,2019-11-14T13:00:00Z,25.2170,-80.6500,1.5,15.8,11111222 
ENP,ioos.station.NOAA.NDBC:TRRF1:1,2019-11-14T14:00:00Z,25.2170,-80.6500,1.5,15.92,11111222 
ENP,ioos.station.NOAA.NDBC:TRRF1:1,2019-11-14T15:00:00Z,25.2170,-80.6500,1.5,15.99,11111222 
ENP,ioos.station.NOAA.NDBC:TRRF1:1,2019-11-14T16:00:00Z,25.2170,-80.6500,1.5,16.05,11111222 
ENP,ioos.station.NOAA.NDBC:TRRF1:1,2019-11-14T17:00:00Z,25.2170,-80.6500,1.5,16.1,11111222 
ENP,ioos.station.NOAA.NDBC:TRRF1:1,2019-11-14T19:00:00Z,25.2170,-80.6500,1.5,16.24,11111222 
ENP,ioos.station.NOAA.NDBC:TRRF1:1,2019-11-14T20:00:00Z,25.2170,-80.6500,1.5,16.26,11111222 
ENP,ioos.station.NOAA.NDBC:TRRF1:1,2019-11-14T21:00:00Z,25.2170,-80.6500,1.5,16.33,11111222 
ENP,ioos.station.NOAA.NDBC:TRRF1:1,2019-11-14T23:00:00Z,25.2170,-80.6500,1.5,16.88,11111222 